Location: Avully
(45.9633°N, 6.0228°E)
Time: 02:41:11
(UTC+00:00)

IRS-1D - Pass Details

Date: 23 May 2024
Orbit: 738 x 813 km, 98.8° (Epoch: 17 June)

Event Time Altitude Azimuth Distance (km) Brightness Sun altitude
Rises 03:09:16 0° 17° (NNE) 3,348 7.9 -7.3°
Reaches altitude 10° 03:11:40 10° 20° (NNE) 2,412 7.2 -7.0°
Maximum altitude 03:16:58 63° 102° (ESE) 907 4.1 -6.3°
Drops below altitude 10° 03:22:11 10° 183° (S) 2,375 5.7 -5.6°
Sets 03:24:31 0° 187° (S) 3,293 6.4 -5.2°
